Weather in Skidel

Belarus     53°35′24″N   24°15′02″E
temp.,
°C
wind,
m/s
gust,
m/s
humid.,
%
clouds,
%
prec.,
mm/h
press.,
hPa
HPBL,
m
17 may, mon
mon1700:00+13s2293100 1.0 100541
03:00+13ssw3798100 3.1 1005260
06:00+12wsw1398100 1.4 1005171
09:00+12w129478 5.7 1006243
12:00+16w1173100 0.0 1006911
15:00+18wnw2262100 0.1 10051324
18:00+19nw2362100 0.0 10041155
21:00+14nnw3579100 0.0 100374
18 may, tue
tue1800:00+12nne349299 0.0 100379
03:00+11n349699 0.0 100375
06:00+11n3598100 0.0 1002128
09:00+15nne348994 0.1 1002489
12:00+14nne2493100 2.2 1002281
15:00+14n1394100 4.1 1002191
18:00+14nne239094 1.7 1002129
21:00+13nnw228694 2.0 100332
19 may, wed
wed1900:00+10nw379493 0.0 1003124
03:00+9wnw3997100 0.0 1004225
06:00+9wnw489798 0.0 1005292
09:00+12wnw578555 0.0 1006519
12:00+15wnw676937 0.0 10071133
15:00+13w6778100 0.1 1008615
18:00+14nw467059 0.1 1009653
21:00+11wnw3687100 0.1 1010114
20 may, thu
thu2000:00+9nw3895100 0.0 1011155
03:00+7nw3997100 0.0 1012245
06:00+7nw4998100 0.0 1012283
09:00+10nnw5983100 0.0 1012498
12:00+14nnw6862100 0.0 10121306
15:00+16nnw6856100 0.0 10112066
18:00+14nnw71069100 0.3 10111009
21:00+11nw71372100 0.3 1012631
21 may, fri
fri2100:00+9nw71477100 0.0 1013520
03:00+6wnw6138381 0.0 1014462
06:00+5wnw5128974 0.0 1014403
09:00+9wnw6107881 0.0 1015672
12:00+13w785936 0.1 10151765
15:00+13wnw685857 0.1 10151245
18:00+13wnw465648 0.1 10151576
21:00+9wnw338113 0.3 101541